Powrót do katalogu

KUIPER-00269

AktywnyŁącznośćLEO
NORAD 68587·PAYLOAD·🇺🇸 United States

Wystrzelony Apr 4, 2026 z Cape Canaveral Space Force Station

Loading…

Następne Przeloty (najbliższe 24 godziny)

TLE

ŚwieżeSource: CelesTrak SupGP

Epoka: Sep 15, 2026, 01:48 UTC

1 68587C 26072Q   26258.07569444  .00002220  00000+0  29065-3 0  2581
2 68587  51.8984 135.6725 0001094  96.7556 327.4391 14.79919365    16

Śledź KUIPER-00269 w czasie rzeczywistym z AllMySat

Download on the App Store